TVS1062 GCXO-LTBA

Flight info

Callsign TVS1062
Flight time N/A
Altitude 34000
Route KORAL UG5 SONSO UN871 ESS UG5 SAK UR975 DONAS/N0459F350 UR975 FES UA411 MORJA UM978 TUC UM725 SIRVI UB979 SUSIP/N0455F360 DCT OSDET DCT PAL DCT BUDIN DCT KOGEB DCT GEMVI DCT LATAN/N0456F350 UL869 KRK UM600 TSL UM603 PEREN UN644 DIGTI UT162 DRAMO
Aircraft B38M/M-SDE1FGHILORVWXY/HB1

Departure

Time 2026-04-26 14:49
Airport Tenerife Norte-Ciudad de La Laguna Airport (GCXO)

Arrival

Time N/A
Airport İstanbul Atatürk Airport (LTBA)
Time Latitude Longitude Altitude Speed Heading
2026-04-26 14:32 28.48712 -16.34788 2078 ft 0 kts 48°
2026-04-26 14:44 28.48713 -16.34787 2077 ft 1 kts 48°
2026-04-26 14:44 28.48713 -16.34785 2077 ft 0 kts 66°
2026-04-26 14:45 28.48709 -16.34779 2075 ft 4 kts 119°
2026-04-26 14:45 28.48688 -16.34756 2077 ft 10 kts 139°
2026-04-26 14:45 28.48553 -16.34620 2072 ft 28 kts 129°
2026-04-26 14:45 28.48452 -16.34367 2060 ft 42 kts 110°
2026-04-26 14:46 28.48335 -16.34013 2046 ft 52 kts 111°
2026-04-26 14:46 28.48199 -16.33602 2042 ft 58 kts 111°
2026-04-26 14:46 28.48050 -16.33153 2030 ft 63 kts 110°
2026-04-26 14:46 28.47910 -16.32732 2017 ft 25 kts 111°
2026-04-26 14:47 28.47814 -16.32548 2015 ft 25 kts 149°
2026-04-26 14:47 28.47749 -16.32597 2019 ft 11 kts 289°
2026-04-26 14:47 28.47784 -16.32698 2018 ft 16 kts 291°
2026-04-26 14:47 28.47828 -16.32831 2023 ft 20 kts 290°
2026-04-26 14:48 28.47883 -16.32997 2029 ft 30 kts 290°
2026-04-26 14:48 28.48034 -16.33447 2040 ft 93 kts 291°
2026-04-26 14:48 28.48331 -16.34351 2063 ft 149 kts 290°
2026-04-26 14:48 28.48739 -16.35586 2308 ft 177 kts 290°
2026-04-26 14:49 28.49125 -16.36882 3134 ft 175 kts 291°
2026-04-26 14:49 28.49487 -16.38239 3750 ft 188 kts 290°
2026-04-26 14:49 28.49966 -16.39696 3929 ft 205 kts 296°
2026-04-26 14:49 28.50527 -16.41232 4477 ft 212 kts 295°
2026-04-26 14:50 28.51090 -16.42826 5093 ft 224 kts 295°
2026-04-26 14:50 28.51679 -16.44535 5604 ft 240 kts 294°
2026-04-26 14:50 28.52295 -16.46354 6208 ft 250 kts 293°
2026-04-26 14:50 28.52918 -16.48213 6969 ft 253 kts 293°
2026-04-26 14:51 28.53545 -16.50097 7662 ft 257 kts 292°
2026-04-26 14:51 28.54292 -16.51957 7982 ft 259 kts 304°
2026-04-26 14:51 28.55502 -16.53416 7981 ft 252 kts 329°
2026-04-26 14:51 28.57096 -16.54184 8000 ft 250 kts 351°
2026-04-26 14:52 28.58820 -16.54199 8518 ft 243 kts 12°
2026-04-26 14:52 28.60422 -16.53605 9241 ft 247 kts 22°
2026-04-26 14:52 28.62044 -16.52816 9675 ft 262 kts 31°
2026-04-26 14:52 28.63364 -16.51326 10001 ft 278 kts 63°
2026-04-26 14:53 28.63807 -16.49217 10537 ft 285 kts 91°
2026-04-26 14:53 28.63339 -16.46996 11032 ft 296 kts 116°
2026-04-26 14:53 28.62344 -16.44918 11645 ft 300 kts 118°
2026-04-26 14:53 28.61347 -16.42821 12319 ft 304 kts 118°
2026-04-26 14:54 28.60331 -16.40696 12961 ft 307 kts 118°
2026-04-26 14:54 28.59302 -16.38551 13627 ft 311 kts 118°
2026-04-26 14:54 28.58248 -16.36360 14055 ft 322 kts 118°
2026-04-26 14:54 28.57146 -16.34067 14297 ft 338 kts 118°
2026-04-26 14:55 28.55988 -16.31662 14495 ft 355 kts 119°
2026-04-26 14:55 28.54818 -16.29110 14634 ft 372 kts 111°
2026-04-26 14:55 28.54246 -16.26187 14728 ft 389 kts 92°
2026-04-26 14:55 28.54572 -16.23097 14892 ft 402 kts 75°
2026-04-26 14:56 28.55331 -16.19998 15158 ft 410 kts 75°
2026-04-26 14:56 28.56077 -16.16869 15753 ft 410 kts 75°
2026-04-26 14:56 28.56828 -16.13723 16168 ft 414 kts 75°
2026-04-26 14:56 28.57584 -16.10547 16652 ft 417 kts 75°
2026-04-26 14:57 28.58344 -16.07354 17101 ft 420 kts 75°
2026-04-26 14:57 28.59110 -16.04133 17554 ft 423 kts 75°
2026-04-26 14:57 28.59881 -16.00886 17999 ft 426 kts 75°
2026-04-26 14:57 28.60655 -15.97623 18415 ft 429 kts 75°
2026-04-26 14:58 28.61435 -15.94332 18810 ft 432 kts 75°
2026-04-26 14:58 28.62218 -15.91022 19187 ft 434 kts 76°
2026-04-26 14:58 28.63007 -15.87688 19579 ft 437 kts 76°
2026-04-26 14:58 28.63787 -15.84382 19970 ft 440 kts 76°
2026-04-26 14:59 28.64583 -15.81009 20368 ft 442 kts 76°
2026-04-26 14:59 28.65382 -15.77617 20737 ft 445 kts 76°
2026-04-26 14:59 28.66185 -15.74204 21118 ft 448 kts 76°
2026-04-26 14:59 28.66731 -15.71882 21373 ft 450 kts 76°
2026-04-26 15:00 28.67804 -15.67309 21851 ft 453 kts 76°
2026-04-26 15:00 28.68619 -15.63834 22211 ft 456 kts 76°
2026-04-26 15:00 28.69438 -15.60334 22566 ft 458 kts 76°
2026-04-26 15:00 28.70260 -15.56818 22931 ft 460 kts 76°
2026-04-26 15:01 28.71085 -15.53286 23289 ft 463 kts 76°
2026-04-26 15:01 28.71914 -15.49731 23623 ft 465 kts 76°
2026-04-26 15:01 28.72745 -15.46164 23937 ft 467 kts 76°
2026-04-26 15:01 28.73579 -15.42581 24236 ft 469 kts 76°
2026-04-26 15:02 28.74416 -15.38975 24518 ft 472 kts 76°
2026-04-26 15:02 28.75257 -15.35350 24811 ft 474 kts 76°
2026-04-26 15:02 28.76101 -15.31711 25095 ft 476 kts 76°
2026-04-26 15:02 28.76945 -15.28061 25373 ft 478 kts 76°
2026-04-26 15:03 28.77794 -15.24390 25657 ft 480 kts 76°
2026-04-26 15:03 28.78644 -15.20706 25933 ft 482 kts 76°
2026-04-26 15:03 28.79497 -15.17002 26199 ft 484 kts 76°
2026-04-26 15:03 28.80353 -15.13284 26509 ft 485 kts 76°
2026-04-26 15:04 28.81206 -15.09574 26891 ft 484 kts 76°
2026-04-26 15:04 28.82046 -15.05915 27267 ft 483 kts 76°
2026-04-26 15:04 28.82906 -15.02161 27640 ft 483 kts 76°
2026-04-26 15:04 28.83744 -14.98504 28006 ft 482 kts 77°
2026-04-26 15:05 28.84588 -14.94812 28382 ft 481 kts 77°
2026-04-26 15:05 28.85159 -14.92312 28627 ft 481 kts 77°
2026-04-26 15:05 28.86275 -14.87427 29101 ft 481 kts 77°
2026-04-26 15:05 28.87113 -14.83741 29448 ft 480 kts 77°
2026-04-26 15:06 28.87952 -14.80053 29788 ft 480 kts 77°
2026-04-26 15:06 28.88790 -14.76370 30131 ft 479 kts 77°
2026-04-26 15:06 28.89624 -14.72692 30406 ft 479 kts 77°
2026-04-26 15:06 28.90460 -14.69010 30644 ft 480 kts 77°
2026-04-26 15:07 28.92129 -14.61631 31150 ft 480 kts 77°
2026-04-26 15:07 28.92964 -14.57932 31397 ft 480 kts 77°
2026-04-26 15:07 28.93797 -14.54240 31646 ft 480 kts 77°
2026-04-26 15:08 28.94629 -14.50546 31865 ft 481 kts 77°
2026-04-26 15:08 28.95461 -14.46845 32106 ft 481 kts 77°
2026-04-26 15:08 28.96292 -14.43142 32350 ft 481 kts 77°
2026-04-26 15:08 28.97123 -14.39441 32579 ft 481 kts 77°
2026-04-26 15:09 28.97952 -14.35738 32803 ft 482 kts 77°
2026-04-26 15:09 28.98780 -14.32036 33035 ft 482 kts 77°
2026-04-26 15:09 28.99609 -14.28319 33242 ft 482 kts 77°
2026-04-26 15:09 29.00427 -14.24656 33458 ft 482 kts 77°
2026-04-26 15:10 29.01255 -14.20937 33666 ft 483 kts 77°
2026-04-26 15:10 29.01813 -14.18425 33813 ft 483 kts 77°
2026-04-26 15:10 29.02907 -14.13502 34017 ft 484 kts 77°
2026-04-26 15:10 29.03562 -14.10550 33998 ft 483 kts 77°
2026-04-26 15:11 29.05209 -14.03110 33996 ft 483 kts 77°
2026-04-26 15:11 29.06852 -13.95666 33996 ft 483 kts 77°
2026-04-26 15:12 29.08491 -13.88222 33997 ft 483 kts 77°
2026-04-26 15:12 29.10125 -13.80776 33994 ft 483 kts 77°
2026-04-26 15:13 29.11756 -13.73323 33989 ft 483 kts 77°
2026-04-26 15:13 29.13384 -13.65869 33991 ft 483 kts 77°
2026-04-26 15:14 29.15009 -13.58408 33990 ft 483 kts 77°
2026-04-26 15:14 29.16933 -13.51047 33976 ft 483 kts 62°
2026-04-26 15:15 29.20621 -13.44605 33974 ft 485 kts 56°
2026-04-26 15:15 29.24437 -13.38279 33983 ft 486 kts 55°
2026-04-26 15:16 29.28331 -13.31898 33979 ft 486 kts 55°
2026-04-26 15:16 29.32176 -13.25594 33978 ft 486 kts 55°
2026-04-26 15:17 29.35417 -13.20275 33981 ft 486 kts 55°
2026-04-26 15:17 29.39914 -13.12880 33974 ft 486 kts 55°
2026-04-26 15:18 29.43783 -13.06509 33973 ft 487 kts 55°
2026-04-26 15:18 29.47647 -13.00136 33971 ft 487 kts 55°
2026-04-26 15:19 29.51512 -12.93750 33970 ft 487 kts 55°
2026-04-26 15:19 29.55379 -12.87352 33965 ft 487 kts 55°
2026-04-26 15:20 29.59239 -12.80956 33963 ft 487 kts 55°
2026-04-26 15:20 29.63102 -12.74544 33963 ft 487 kts 55°
2026-04-26 15:21 29.66957 -12.68136 33959 ft 487 kts 55°
2026-04-26 15:21 29.70811 -12.61720 33956 ft 487 kts 55°
2026-04-26 15:22 29.74644 -12.55284 33959 ft 488 kts 56°
2026-04-26 15:22 29.78460 -12.48838 33955 ft 487 kts 56°
2026-04-26 15:23 29.82278 -12.42382 33954 ft 487 kts 56°
2026-04-26 15:24 29.89452 -12.30224 33948 ft 487 kts 56°
2026-04-26 15:24 29.93255 -12.23763 33945 ft 487 kts 56°
2026-04-26 15:25 29.97053 -12.17301 33941 ft 487 kts 56°
2026-04-26 15:25 30.00831 -12.10870 33941 ft 487 kts 56°
2026-04-26 15:26 30.04657 -12.04416 33937 ft 487 kts 56°
2026-04-26 15:26 30.08480 -11.97952 33938 ft 487 kts 56°
2026-04-26 15:27 30.12294 -11.91493 33934 ft 487 kts 56°
2026-04-26 15:27 30.16109 -11.85021 33937 ft 487 kts 56°
2026-04-26 15:28 30.19919 -11.78547 33933 ft 487 kts 56°
2026-04-26 15:28 30.23724 -11.72071 33927 ft 487 kts 56°
2026-04-26 15:29 30.27531 -11.65583 33925 ft 487 kts 56°
2026-04-26 15:30 30.35128 -11.52601 33920 ft 487 kts 56°
2026-04-26 15:30 30.38922 -11.46101 33917 ft 487 kts 56°
2026-04-26 15:31 30.44582 -11.36388 33913 ft 487 kts 56°
2026-04-26 15:32 30.49643 -11.27682 33909 ft 487 kts 56°
2026-04-26 15:32 30.54035 -11.20110 33906 ft 487 kts 56°
2026-04-26 15:33 30.57812 -11.13587 33902 ft 487 kts 56°
2026-04-26 15:33 30.61581 -11.07067 33900 ft 487 kts 56°
2026-04-26 15:34 30.65351 -11.00537 33897 ft 487 kts 56°
2026-04-26 15:34 30.69112 -10.94009 33892 ft 487 kts 56°
2026-04-26 15:35 30.72877 -10.87465 33890 ft 487 kts 56°
2026-04-26 15:35 30.76635 -10.80922 33885 ft 487 kts 56°
2026-04-26 15:36 30.80390 -10.74374 33886 ft 487 kts 56°
2026-04-26 15:36 30.84139 -10.67823 33878 ft 487 kts 56°
2026-04-26 15:37 30.87889 -10.61261 33880 ft 487 kts 56°
2026-04-26 15:37 30.91637 -10.54692 33876 ft 487 kts 56°
2026-04-26 15:38 30.95383 -10.48115 33875 ft 487 kts 56°
2026-04-26 15:38 30.99125 -10.41534 33873 ft 487 kts 56°
2026-04-26 15:39 31.02865 -10.34946 33871 ft 487 kts 56°
2026-04-26 15:39 31.05992 -10.29429 33869 ft 487 kts 56°
2026-04-26 15:40 31.10329 -10.21763 33871 ft 487 kts 56°
2026-04-26 15:40 31.14056 -10.15165 33867 ft 487 kts 56°
2026-04-26 15:41 31.17777 -10.08566 33869 ft 487 kts 56°
2026-04-26 15:41 31.21495 -10.01960 33866 ft 486 kts 56°
2026-04-26 15:42 31.25202 -9.95365 33874 ft 485 kts 56°
2026-04-26 15:42 31.28903 -9.88769 33877 ft 485 kts 56°
2026-04-26 15:43 31.32598 -9.82176 33882 ft 484 kts 56°
2026-04-26 15:44 31.38124 -9.72292 33887 ft 483 kts 56°
2026-04-26 15:44 31.42583 -9.66540 33897 ft 479 kts 37°
2026-04-26 15:44 31.45185 -9.64090 33876 ft 480 kts 37°
2026-04-26 15:45 31.53019 -9.56817 33883 ft 478 kts 37°
2026-04-26 15:46 31.60807 -9.49622 33891 ft 476 kts 37°
2026-04-26 15:46 31.65166 -9.45589 33885 ft 476 kts 37°
2026-04-26 15:47 31.73782 -9.37601 33887 ft 474 kts 37°
2026-04-26 15:48 31.78947 -9.32803 33888 ft 473 kts 37°
2026-04-26 15:48 31.84103 -9.28007 33887 ft 472 kts 37°
2026-04-26 15:49 31.89254 -9.23208 33895 ft 472 kts 38°
2026-04-26 15:49 31.94399 -9.18409 33889 ft 472 kts 38°
2026-04-26 15:50 31.98670 -9.14418 33891 ft 471 kts 38°
2026-04-26 15:50 32.04676 -9.08800 33891 ft 471 kts 38°
2026-04-26 15:51 32.09807 -9.03991 33886 ft 471 kts 38°
2026-04-26 15:51 32.14934 -8.99179 33887 ft 471 kts 38°
2026-04-26 15:52 32.20054 -8.94368 33885 ft 471 kts 38°
2026-04-26 15:52 32.25171 -8.89551 33892 ft 470 kts 38°
2026-04-26 15:53 32.30282 -8.84733 33891 ft 469 kts 39°
2026-04-26 15:53 32.35384 -8.79917 33891 ft 469 kts 39°
2026-04-26 15:54 32.40443 -8.75133 33891 ft 468 kts 39°
2026-04-26 15:54 32.45525 -8.70321 33892 ft 468 kts 39°
2026-04-26 15:55 32.50603 -8.65506 33890 ft 467 kts 39°
2026-04-26 15:55 32.55671 -8.60694 33894 ft 466 kts 39°
2026-04-26 15:56 32.60717 -8.55894 33892 ft 464 kts 39°
2026-04-26 15:56 32.65738 -8.51111 33891 ft 462 kts 39°
2026-04-26 15:57 32.70740 -8.46339 33888 ft 460 kts 40°
2026-04-26 15:57 32.75724 -8.41579 33885 ft 459 kts 40°
2026-04-26 15:58 32.80697 -8.36823 33889 ft 458 kts 40°
2026-04-26 15:58 32.85655 -8.32074 33889 ft 458 kts 40°
2026-04-26 15:59 32.90621 -8.27309 33887 ft 459 kts 40°
2026-04-26 15:59 32.95599 -8.22526 33893 ft 460 kts 40°
2026-04-26 16:00 33.00552 -8.17762 33894 ft 461 kts 40°
2026-04-26 16:00 33.05548 -8.12947 33897 ft 462 kts 40°
2026-04-26 16:01 33.10559 -8.08111 33889 ft 463 kts 41°
2026-04-26 16:01 33.15576 -8.03264 33899 ft 465 kts 40°
2026-04-26 16:02 33.20588 -7.98412 33907 ft 464 kts 40°
2026-04-26 16:02 33.25596 -7.93557 33902 ft 464 kts 40°
2026-04-26 16:03 33.30602 -7.88698 33904 ft 463 kts 40°
2026-04-26 16:03 33.35602 -7.83836 33906 ft 463 kts 40°
2026-04-26 16:04 33.39753 -7.79794 33908 ft 463 kts 40°
2026-04-26 16:04 33.44742 -7.74929 33909 ft 462 kts 40°
2026-04-26 16:05 33.49652 -7.69963 33897 ft 460 kts 50°
2026-04-26 16:05 33.51487 -7.66873 33910 ft 455 kts 66°
2026-04-26 16:05 33.52564 -7.63327 33921 ft 452 kts 78°
2026-04-26 16:06 33.53987 -7.55964 33912 ft 454 kts 79°
2026-04-26 16:06 33.55254 -7.48535 33889 ft 455 kts 80°
2026-04-26 16:07 33.56468 -7.41096 33910 ft 455 kts 80°
2026-04-26 16:07 33.57672 -7.33640 33908 ft 456 kts 80°
2026-04-26 16:08 33.58873 -7.26168 33912 ft 457 kts 80°
2026-04-26 16:08 33.60073 -7.18681 33912 ft 457 kts 80°
2026-04-26 16:09 33.61267 -7.11193 33909 ft 458 kts 80°
2026-04-26 16:09 33.62462 -7.03673 33906 ft 459 kts 80°
2026-04-26 16:10 33.63656 -6.96129 33901 ft 461 kts 80°
2026-04-26 16:10 33.64844 -6.88619 33895 ft 462 kts 79°
2026-04-26 16:11 33.66048 -6.81029 33884 ft 463 kts 79°
2026-04-26 16:11 33.67118 -6.74257 33874 ft 465 kts 79°
2026-04-26 16:12 33.68320 -6.66624 33870 ft 466 kts 79°
2026-04-26 16:12 33.70102 -6.55140 33881 ft 467 kts 80°
2026-04-26 16:13 33.71262 -6.47472 33877 ft 467 kts 80°
2026-04-26 16:13 33.72421 -6.39797 33879 ft 467 kts 80°
2026-04-26 16:14 33.73581 -6.32122 33876 ft 467 kts 79°
2026-04-26 16:15 33.75328 -6.20602 33880 ft 467 kts 79°
2026-04-26 16:15 33.76489 -6.12907 33883 ft 468 kts 79°
2026-04-26 16:16 33.78225 -6.01332 33887 ft 470 kts 79°
2026-04-26 16:16 33.79379 -5.93600 33892 ft 471 kts 79°
2026-04-26 16:17 33.80531 -5.85843 33915 ft 471 kts 79°
2026-04-26 16:17 33.81673 -5.78124 33921 ft 472 kts 79°
2026-04-26 16:18 33.83388 -5.66452 33937 ft 473 kts 79°
2026-04-26 16:19 33.85097 -5.54743 33939 ft 475 kts 79°
2026-04-26 16:20 33.86799 -5.42999 33940 ft 476 kts 79°
2026-04-26 16:20 33.88496 -5.31218 33941 ft 477 kts 79°
2026-04-26 16:21 33.89623 -5.23342 33942 ft 478 kts 79°
2026-04-26 16:21 33.90747 -5.15453 33942 ft 479 kts 79°
2026-04-26 16:22 33.91868 -5.07550 33943 ft 480 kts 79°
2026-04-26 16:22 33.93222 -4.99696 33935 ft 477 kts 68°
2026-04-26 16:23 33.95459 -4.92141 33944 ft 479 kts 69°
2026-04-26 16:23 33.97664 -4.84611 33937 ft 480 kts 69°
2026-04-26 16:24 33.99887 -4.77017 33939 ft 481 kts 69°
2026-04-26 16:24 34.02108 -4.69407 33934 ft 482 kts 69°
2026-04-26 16:25 34.04330 -4.61775 33926 ft 483 kts 69°
2026-04-26 16:25 34.06550 -4.54130 33936 ft 483 kts 69°
2026-04-26 16:26 34.08395 -4.47761 33941 ft 484 kts 69°
2026-04-26 16:26 34.10987 -4.38790 33939 ft 485 kts 68°
2026-04-26 16:27 34.13200 -4.31104 33956 ft 485 kts 68°
2026-04-26 16:27 34.15413 -4.23398 33959 ft 486 kts 68°
2026-04-26 16:28 34.17605 -4.15664 33966 ft 487 kts 69°
2026-04-26 16:28 34.19741 -4.07912 33975 ft 487 kts 69°
2026-04-26 16:29 34.21883 -4.00145 33981 ft 487 kts 69°
2026-04-26 16:29 34.24021 -3.92370 33982 ft 487 kts 69°
2026-04-26 16:30 34.26154 -3.84592 33982 ft 488 kts 69°
2026-04-26 16:30 34.28282 -3.76810 33985 ft 487 kts 69°
2026-04-26 16:31 34.30389 -3.69083 33990 ft 487 kts 69°
2026-04-26 16:31 34.32505 -3.61302 33992 ft 487 kts 69°
2026-04-26 16:32 34.34276 -3.54771 33998 ft 487 kts 69°
2026-04-26 16:32 34.36747 -3.45721 33999 ft 488 kts 69°
2026-04-26 16:33 34.38902 -3.37932 34002 ft 488 kts 69°
2026-04-26 16:33 34.41050 -3.30133 34003 ft 488 kts 69°
2026-04-26 16:34 34.43192 -3.22338 34009 ft 488 kts 69°
2026-04-26 16:34 34.45329 -3.14538 34005 ft 488 kts 69°
2026-04-26 16:35 34.47461 -3.06731 34011 ft 488 kts 69°
2026-04-26 16:35 34.49588 -2.98923 34008 ft 487 kts 69°
2026-04-26 16:36 34.51708 -2.91118 34012 ft 487 kts 69°
2026-04-26 16:36 34.53825 -2.83301 34012 ft 487 kts 69°
2026-04-26 16:37 34.55938 -2.75497 34022 ft 486 kts 69°
2026-04-26 16:37 34.57708 -2.69031 34024 ft 486 kts 69°
2026-04-26 16:38 34.60184 -2.59931 34032 ft 485 kts 70°
2026-04-26 16:38 34.62263 -2.52133 34020 ft 485 kts 70°
2026-04-26 16:39 34.64323 -2.44402 34020 ft 484 kts 70°
2026-04-26 16:39 34.66389 -2.36627 34026 ft 483 kts 70°
2026-04-26 16:40 34.68447 -2.28859 34039 ft 482 kts 70°
2026-04-26 16:40 34.70496 -2.21104 34041 ft 482 kts 70°
2026-04-26 16:41 34.72536 -2.13358 34048 ft 481 kts 71°
2026-04-26 16:41 34.77719 -1.92966 34055 ft 480 kts 76°
2026-04-26 16:42 34.83225 -1.78793 33926 ft 456 kts 34°
2026-04-26 16:42 34.89742 -1.75144 34075 ft 450 kts 20°
2026-04-26 16:42 34.94814 -1.70680 34030 ft 459 kts 52°
2026-04-26 16:42 34.97654 -1.63667 34031 ft 466 kts 66°
2026-04-26 16:43 35.01317 -1.57480 34028 ft 458 kts 37°
2026-04-26 16:43 35.06216 -1.52519 33971 ft 459 kts 51°
2026-04-26 16:43 35.13586 -1.40070 34054 ft 456 kts 38°
2026-04-26 16:44 35.17676 -1.34392 34013 ft 453 kts 64°
2026-04-26 16:44 35.20584 -1.27555 33981 ft 454 kts 50°
2026-04-26 16:44 35.28647 -1.16026 34066 ft 452 kts 65°
2026-04-26 16:45 35.32301 -1.09816 34034 ft 452 kts 39°
2026-04-26 16:45 35.36941 -1.04625 33985 ft 452 kts 57°
2026-04-26 16:45 35.44602 -0.92660 34039 ft 455 kts 43°
2026-04-26 16:46 35.48124 -0.86388 34084 ft 449 kts 65°
2026-04-26 16:46 35.51736 -0.80188 34052 ft 450 kts 42°
2026-04-26 16:46 35.55896 -0.74526 34010 ft 445 kts 64°
2026-04-26 16:46 35.58995 -0.67956 33972 ft 447 kts 47°
2026-04-26 16:47 35.65970 -0.55931 34032 ft 440 kts 84°
2026-04-26 16:47 35.69659 -0.41916 34070 ft 448 kts 52°
2026-04-26 16:48 35.72618 -0.35298 34035 ft 441 kts 78°
2026-04-26 16:48 35.74314 -0.28045 33988 ft 444 kts 62°
2026-04-26 16:48 35.79218 -0.17105 34041 ft 440 kts 81°
2026-04-26 16:49 35.80673 -0.09787 34002 ft 443 kts 63°
2026-04-26 16:49 35.85272 -0.01347 33985 ft 442 kts 70°
2026-04-26 16:49 35.89375 0.12682 34060 ft 444 kts 52°
2026-04-26 16:50 35.92468 0.19213 34010 ft 440 kts 76°
2026-04-26 16:50 35.93876 0.26568 33985 ft 443 kts 67°
2026-04-26 16:50 35.98315 0.37817 34067 ft 439 kts 79°
2026-04-26 16:51 36.01572 0.46903 34086 ft 444 kts 57°
2026-04-26 16:51 36.03881 0.53868 34078 ft 439 kts 80°
2026-04-26 16:51 36.05883 0.60967 34005 ft 443 kts 56°
2026-04-26 16:51 36.09247 0.67351 33971 ft 442 kts 71°
2026-04-26 16:52 36.11254 0.77155 33977 ft 442 kts 63°
2026-04-26 16:52 36.15347 0.85963 33995 ft 440 kts 76°
2026-04-26 16:52 36.16706 0.93250 34011 ft 443 kts 69°
2026-04-26 16:53 36.22136 1.06843 34099 ft 440 kts 83°
2026-04-26 16:53 36.23809 1.14012 34056 ft 443 kts 59°
2026-04-26 16:53 36.27220 1.20522 34049 ft 444 kts 69°
2026-04-26 16:54 36.31127 1.34716 34117 ft 446 kts 53°
2026-04-26 16:54 36.34346 1.41233 34062 ft 442 kts 75°
2026-04-26 16:54 36.35121 1.46729 34092 ft 443 kts 80°
2026-04-26 16:55 36.36096 1.50348 34074 ft 444 kts 63°
2026-04-26 16:55 36.37595 1.53705 34065 ft 446 kts 65°
2026-04-26 16:55 36.40176 1.60700 34076 ft 446 kts 68°
2026-04-26 16:56 36.43847 1.71286 34063 ft 444 kts 69°
2026-04-26 16:57 36.46261 1.78353 34068 ft 444 kts 69°
2026-04-26 16:57 36.49865 1.88939 34070 ft 443 kts 69°
2026-04-26 16:58 36.51856 1.94804 34067 ft 443 kts 69°
2026-04-26 16:59 36.55841 2.06577 34073 ft 442 kts 69°
2026-04-26 17:00 36.60214 2.20771 34069 ft 437 kts 84°
2026-04-26 17:00 36.61301 2.32060 34086 ft 438 kts 85°
2026-04-26 17:01 36.61989 2.39597 34084 ft 439 kts 85°
2026-04-26 17:01 36.62668 2.47143 34080 ft 439 kts 85°
2026-04-26 17:02 36.63342 2.54699 34086 ft 439 kts 85°
2026-04-26 17:02 36.64013 2.62262 34084 ft 440 kts 85°
2026-04-26 17:03 36.64679 2.69832 34081 ft 441 kts 85°
2026-04-26 17:03 36.65222 2.76039 34082 ft 441 kts 85°
2026-04-26 17:04 36.65882 2.83643 34084 ft 442 kts 85°
2026-04-26 17:04 36.66538 2.91258 34092 ft 443 kts 85°
2026-04-26 17:05 36.67188 2.98848 34096 ft 444 kts 85°
2026-04-26 17:05 36.67837 3.06502 34098 ft 445 kts 85°
2026-04-26 17:06 36.68484 3.14171 34107 ft 446 kts 85°
2026-04-26 17:06 36.69009 3.21865 34084 ft 444 kts 95°
2026-04-26 17:07 36.68254 3.29500 34109 ft 445 kts 98°
2026-04-26 17:07 36.67465 3.37165 34096 ft 446 kts 99°
2026-04-26 17:08 36.66655 3.44840 34098 ft 448 kts 99°
2026-04-26 17:08 36.65838 3.52532 34097 ft 448 kts 99°
2026-04-26 17:09 36.65196 3.58932 34071 ft 449 kts 93°
2026-04-26 17:09 36.65573 3.68046 34084 ft 452 kts 88°
2026-04-26 17:10 36.65945 3.75865 34076 ft 453 kts 88°
2026-04-26 17:10 36.66318 3.83697 34075 ft 453 kts 88°
2026-04-26 17:11 36.66686 3.91530 34087 ft 454 kts 88°
2026-04-26 17:11 36.67051 3.99384 34079 ft 454 kts 88°
2026-04-26 17:12 36.67585 4.11120 34081 ft 455 kts 88°
2026-04-26 17:13 36.68111 4.22920 34081 ft 455 kts 88°
2026-04-26 17:14 36.68626 4.34736 34088 ft 456 kts 88°
2026-04-26 17:14 36.69132 4.46597 34091 ft 457 kts 88°
2026-04-26 17:15 36.69625 4.58471 34090 ft 458 kts 88°
2026-04-26 17:16 36.69948 4.66408 34090 ft 459 kts 88°
2026-04-26 17:16 36.70267 4.74349 34096 ft 459 kts 89°
2026-04-26 17:17 36.70580 4.82301 34100 ft 460 kts 89°
2026-04-26 17:17 36.70889 4.90278 34105 ft 460 kts 89°
2026-04-26 17:18 36.71194 4.98252 34101 ft 461 kts 89°
2026-04-26 17:18 36.71496 5.06238 34099 ft 462 kts 88°
2026-04-26 17:19 36.72774 5.18127 34102 ft 464 kts 84°
2026-04-26 17:19 36.73605 5.26127 34101 ft 466 kts 84°
2026-04-26 17:20 36.74288 5.32787 34105 ft 467 kts 84°
2026-04-26 17:20 36.75246 5.42200 34104 ft 469 kts 85°
2026-04-26 17:21 36.76062 5.50277 34103 ft 471 kts 85°
2026-04-26 17:21 36.76876 5.58394 34107 ft 471 kts 85°
2026-04-26 17:22 36.77680 5.66466 34105 ft 472 kts 85°
2026-04-26 17:22 36.78485 5.74597 34104 ft 473 kts 85°
2026-04-26 17:23 36.79285 5.82742 34097 ft 474 kts 85°
2026-04-26 17:23 36.79826 5.90920 34106 ft 473 kts 90°
2026-04-26 17:24 36.80054 5.99129 34104 ft 474 kts 90°
2026-04-26 17:24 36.80259 6.07344 34102 ft 473 kts 90°
2026-04-26 17:25 36.80457 6.15557 34094 ft 474 kts 90°
2026-04-26 17:25 36.80649 6.23787 34102 ft 475 kts 90°
2026-04-26 17:26 36.80837 6.32020 34102 ft 475 kts 90°
2026-04-26 17:26 36.81019 6.40279 34101 ft 476 kts 90°
2026-04-26 17:27 36.81194 6.48536 34095 ft 477 kts 90°
2026-04-26 17:27 36.81366 6.56814 34102 ft 477 kts 90°
2026-04-26 17:28 36.81531 6.65113 34095 ft 479 kts 90°
2026-04-26 17:28 36.81691 6.73417 34104 ft 479 kts 91°
2026-04-26 17:29 36.81820 6.80318 34104 ft 480 kts 91°
2026-04-26 17:29 36.81993 6.90024 34107 ft 481 kts 91°
2026-04-26 17:30 36.82137 6.98374 34108 ft 482 kts 91°
2026-04-26 17:30 36.82275 7.06743 34093 ft 483 kts 91°
2026-04-26 17:31 36.82407 7.15134 34095 ft 484 kts 91°
2026-04-26 17:31 36.82533 7.23535 34105 ft 485 kts 91°
2026-04-26 17:32 36.82654 7.31952 34109 ft 486 kts 91°
2026-04-26 17:32 36.82769 7.40379 34095 ft 486 kts 91°
2026-04-26 17:33 36.82878 7.48823 34099 ft 487 kts 91°
2026-04-26 17:34 36.83032 7.61520 34023 ft 490 kts 92°
2026-04-26 17:34 36.83129 7.70083 34068 ft 497 kts 92°
2026-04-26 17:35 36.83222 7.78726 34077 ft 499 kts 92°
2026-04-26 17:35 36.83270 7.87344 34076 ft 500 kts 92°
2026-04-26 17:36 36.83314 7.96021 34081 ft 500 kts 92°
2026-04-26 17:36 36.83353 8.04715 34091 ft 501 kts 92°
2026-04-26 17:37 36.83384 8.13422 34096 ft 502 kts 92°
2026-04-26 17:37 36.83410 8.22136 34103 ft 502 kts 92°
2026-04-26 17:38 36.83435 8.33722 34104 ft 502 kts 92°
2026-04-26 17:38 36.83447 8.43946 34110 ft 503 kts 92°
2026-04-26 17:39 36.83451 8.52688 34104 ft 504 kts 92°
2026-04-26 17:39 36.83449 8.61438 34093 ft 504 kts 92°
2026-04-26 17:40 36.83477 8.67291 34089 ft 504 kts 91°
2026-04-26 17:40 36.83545 8.77455 34074 ft 504 kts 92°
2026-04-26 17:41 36.83593 8.86221 34087 ft 505 kts 92°
2026-04-26 17:41 36.83635 8.94989 34079 ft 505 kts 92°
2026-04-26 17:42 36.83671 9.03754 34086 ft 505 kts 92°
2026-04-26 17:42 36.83700 9.12521 34086 ft 505 kts 92°
2026-04-26 17:43 36.83722 9.21292 34099 ft 505 kts 92°
2026-04-26 17:43 36.83739 9.30068 34099 ft 506 kts 92°
2026-04-26 17:44 36.83749 9.38853 34109 ft 507 kts 92°
2026-04-26 17:44 36.83905 9.47647 34108 ft 507 kts 90°
2026-04-26 17:45 36.84076 9.56446 34105 ft 507 kts 90°
2026-04-26 17:45 36.84236 9.65259 34112 ft 508 kts 90°
2026-04-26 17:46 36.84391 9.74066 34111 ft 508 kts 90°
2026-04-26 17:46 36.84539 9.82891 34110 ft 509 kts 90°
2026-04-26 17:47 36.84657 9.90228 34110 ft 509 kts 90°
2026-04-26 17:47 36.84815 10.00561 34105 ft 509 kts 90°
2026-04-26 17:48 36.84944 10.09407 34097 ft 510 kts 90°
2026-04-26 17:48 36.85421 10.18217 34092 ft 508 kts 74°
2026-04-26 17:49 36.86655 10.22339 34114 ft 506 kts 61°
2026-04-26 17:49 36.88542 10.26007 34083 ft 499 kts 45°
2026-04-26 17:49 36.93528 10.31875 34097 ft 495 kts 37°
2026-04-26 17:50 36.98738 10.37519 34106 ft 495 kts 36°
2026-04-26 17:50 37.03972 10.43099 34120 ft 494 kts 36°
2026-04-26 17:51 37.09207 10.48680 34127 ft 494 kts 36°
2026-04-26 17:51 37.14432 10.54260 34128 ft 494 kts 36°
2026-04-26 17:52 37.19653 10.59846 34129 ft 493 kts 36°
2026-04-26 17:52 37.24865 10.65431 34134 ft 492 kts 36°
2026-04-26 17:53 37.30067 10.71018 34136 ft 492 kts 35°
2026-04-26 17:54 37.37872 10.79420 34131 ft 492 kts 35°
2026-04-26 17:54 37.43065 10.85021 34138 ft 491 kts 35°
2026-04-26 17:55 37.48246 10.90626 34139 ft 491 kts 35°
2026-04-26 17:55 37.53423 10.96234 34139 ft 490 kts 35°
2026-04-26 17:56 37.58554 11.01804 34138 ft 490 kts 35°
2026-04-26 17:57 37.67619 11.14510 34127 ft 504 kts 68°
2026-04-26 17:57 37.69337 11.23133 34142 ft 508 kts 75°
2026-04-26 17:58 37.72356 11.40558 34146 ft 507 kts 76°
2026-04-26 17:59 37.74566 11.53609 34135 ft 506 kts 76°
2026-04-26 17:59 37.76027 11.62288 34149 ft 505 kts 76°
2026-04-26 18:00 37.77601 11.70927 34150 ft 504 kts 75°
2026-04-26 18:00 37.79172 11.79555 34145 ft 503 kts 75°
2026-04-26 18:01 37.80734 11.88182 34150 ft 503 kts 75°
2026-04-26 18:01 37.82285 11.96789 34139 ft 501 kts 75°
2026-04-26 18:02 37.83566 12.03922 34141 ft 499 kts 75°
2026-04-26 18:02 37.85280 12.13510 34134 ft 497 kts 75°
2026-04-26 18:03 37.86795 12.22031 34135 ft 495 kts 75°
2026-04-26 18:03 37.88288 12.30463 34130 ft 493 kts 76°
2026-04-26 18:04 37.89791 12.38984 34130 ft 492 kts 76°
2026-04-26 18:05 37.91998 12.51571 34130 ft 489 kts 76°
2026-04-26 18:05 37.93460 12.59961 34129 ft 487 kts 76°
2026-04-26 18:06 37.94913 12.68330 34132 ft 486 kts 76°
2026-04-26 18:06 37.96356 12.76680 34139 ft 485 kts 76°
2026-04-26 18:07 37.97789 12.85013 34137 ft 484 kts 76°
2026-04-26 18:07 37.99217 12.93344 34143 ft 484 kts 76°
2026-04-26 18:08 38.00637 13.01678 34140 ft 483 kts 76°
2026-04-26 18:08 38.02051 13.10000 34135 ft 483 kts 76°
2026-04-26 18:09 38.03536 13.18295 34131 ft 480 kts 70°
2026-04-26 18:09 38.05589 13.26359 34139 ft 481 kts 71°
2026-04-26 18:10 38.07551 13.34468 34141 ft 480 kts 71°
2026-04-26 18:10 38.09493 13.42581 34149 ft 480 kts 71°
2026-04-26 18:11 38.11429 13.50696 34152 ft 480 kts 71°
2026-04-26 18:11 38.13359 13.58818 34164 ft 480 kts 71°
2026-04-26 18:12 38.15282 13.66939 34162 ft 480 kts 71°
2026-04-26 18:12 38.17202 13.75069 34163 ft 480 kts 71°
2026-04-26 18:13 38.19113 13.83195 34162 ft 480 kts 71°
2026-04-26 18:13 38.21020 13.91331 34159 ft 480 kts 71°
2026-04-26 18:14 38.22924 13.99481 34160 ft 481 kts 71°
2026-04-26 18:14 38.24821 14.07629 34161 ft 481 kts 71°
2026-04-26 18:15 38.26713 14.15785 34164 ft 481 kts 71°
2026-04-26 18:15 38.28601 14.23953 34161 ft 481 kts 71°
2026-04-26 18:16 38.30471 14.32071 34160 ft 481 kts 71°
2026-04-26 18:16 38.33280 14.44319 34158 ft 481 kts 71°
2026-04-26 18:17 38.35159 14.52548 34157 ft 480 kts 71°
2026-04-26 18:17 38.37008 14.60673 34159 ft 480 kts 71°
2026-04-26 18:18 38.38858 14.68835 34158 ft 480 kts 72°
2026-04-26 18:18 38.40703 14.76999 34156 ft 479 kts 72°
2026-04-26 18:19 38.42539 14.85159 34156 ft 478 kts 72°
2026-04-26 18:19 38.44367 14.93305 34159 ft 477 kts 72°
2026-04-26 18:20 38.46188 15.01441 34156 ft 477 kts 72°
2026-04-26 18:20 38.47406 15.06878 34162 ft 476 kts 71°
2026-04-26 18:21 38.50042 15.17597 34161 ft 475 kts 71°
2026-04-26 18:21 38.52005 15.25652 34162 ft 474 kts 71°
2026-04-26 18:22 38.53958 15.33693 34164 ft 474 kts 71°
2026-04-26 18:22 38.55902 15.41729 34169 ft 473 kts 71°
2026-04-26 18:23 38.57827 15.49714 34172 ft 472 kts 71°
2026-04-26 18:23 38.59753 15.57726 34165 ft 471 kts 71°
2026-04-26 18:24 38.61673 15.65742 34169 ft 471 kts 71°
2026-04-26 18:24 38.63583 15.73746 34166 ft 470 kts 71°
2026-04-26 18:25 38.65485 15.81738 34162 ft 469 kts 71°
2026-04-26 18:25 38.67379 15.89728 34170 ft 469 kts 71°
2026-04-26 18:26 38.69266 15.97715 34167 ft 468 kts 71°
2026-04-26 18:26 38.70829 16.04347 34176 ft 468 kts 72°
2026-04-26 18:27 38.72703 16.12329 34169 ft 468 kts 72°
2026-04-26 18:27 38.74569 16.20301 34167 ft 467 kts 72°
2026-04-26 18:28 38.76426 16.28265 34160 ft 467 kts 72°
2026-04-26 18:28 38.78278 16.36234 34160 ft 466 kts 72°
2026-04-26 18:29 38.80123 16.44199 34157 ft 466 kts 72°
2026-04-26 18:29 38.81962 16.52162 34159 ft 466 kts 72°
2026-04-26 18:30 38.83721 16.59798 34171 ft 465 kts 72°
2026-04-26 18:30 38.85562 16.67704 34156 ft 465 kts 72°
2026-04-26 18:31 38.87415 16.75647 34139 ft 465 kts 72°
2026-04-26 18:31 38.89261 16.83593 34127 ft 464 kts 72°
2026-04-26 18:32 38.91100 16.91533 34111 ft 464 kts 72°
2026-04-26 18:32 38.92934 16.99479 34103 ft 464 kts 72°
2026-04-26 18:33 38.94763 17.07432 34105 ft 464 kts 72°
2026-04-26 18:33 38.96583 17.15376 34106 ft 464 kts 72°
2026-04-26 18:34 38.98399 17.23326 34104 ft 464 kts 72°
2026-04-26 18:34 39.00210 17.31282 34112 ft 464 kts 72°
2026-04-26 18:35 39.02015 17.39241 34115 ft 464 kts 73°
2026-04-26 18:35 39.03814 17.47201 34119 ft 463 kts 73°
2026-04-26 18:36 39.05606 17.55159 34122 ft 463 kts 73°
2026-04-26 18:36 39.07396 17.63130 34119 ft 463 kts 73°
2026-04-26 18:37 39.09178 17.71097 34116 ft 463 kts 73°
2026-04-26 18:37 39.10944 17.79022 34113 ft 463 kts 73°
2026-04-26 18:38 39.12207 17.87167 34102 ft 463 kts 78°
2026-04-26 18:38 39.13462 17.95319 34107 ft 464 kts 78°
2026-04-26 18:39 39.14730 18.03455 34109 ft 463 kts 78°
2026-04-26 18:39 39.15994 18.11591 34109 ft 463 kts 78°
2026-04-26 18:40 39.17255 18.19742 34109 ft 463 kts 78°
2026-04-26 18:40 39.18508 18.27891 34109 ft 464 kts 78°
2026-04-26 18:41 39.19756 18.36043 34109 ft 464 kts 78°
2026-04-26 18:41 39.21001 18.44211 34105 ft 464 kts 78°
2026-04-26 18:42 39.22229 18.52316 34108 ft 464 kts 78°
2026-04-26 18:42 39.23463 18.60492 34107 ft 464 kts 78°
2026-04-26 18:43 39.24691 18.68676 34105 ft 464 kts 78°
2026-04-26 18:43 39.25914 18.76865 34103 ft 465 kts 78°
2026-04-26 18:44 39.27130 18.85049 34105 ft 465 kts 78°
2026-04-26 18:44 39.28343 18.93241 34100 ft 465 kts 78°
2026-04-26 18:45 39.29545 19.01445 34096 ft 465 kts 79°
2026-04-26 18:45 39.30733 19.09661 34091 ft 465 kts 79°
2026-04-26 18:46 39.31919 19.17889 34084 ft 466 kts 79°
2026-04-26 18:46 39.33098 19.26112 34078 ft 466 kts 79°
2026-04-26 18:47 39.34272 19.34344 34076 ft 466 kts 79°
2026-04-26 18:47 39.35441 19.42582 34070 ft 467 kts 79°
2026-04-26 18:48 39.35828 19.45320 34067 ft 467 kts 79°
2026-04-26 18:48 39.36860 19.52649 34062 ft 467 kts 79°
2026-04-26 18:49 39.38019 19.60906 34057 ft 467 kts 79°
2026-04-26 18:49 39.39148 19.69124 34056 ft 468 kts 79°
2026-04-26 18:50 39.40299 19.77454 34053 ft 468 kts 79°
2026-04-26 18:50 39.41436 19.85694 34050 ft 468 kts 79°
2026-04-26 18:51 39.42574 19.93986 34046 ft 469 kts 79°
2026-04-26 18:51 39.43710 20.02304 34047 ft 469 kts 79°
2026-04-26 18:52 39.45491 20.10366 34060 ft 467 kts 64°
2026-04-26 18:52 39.48131 20.18078 34049 ft 469 kts 65°
2026-04-26 18:53 39.50788 20.25800 34055 ft 470 kts 65°
2026-04-26 18:53 39.53446 20.33529 34058 ft 470 kts 65°
2026-04-26 18:54 39.56105 20.41278 34067 ft 470 kts 65°
2026-04-26 18:54 39.58758 20.49031 34084 ft 471 kts 65°
2026-04-26 18:55 39.61407 20.56794 34097 ft 471 kts 65°
2026-04-26 18:55 39.64034 20.64514 34098 ft 471 kts 65°
2026-04-26 18:56 39.66677 20.72299 34104 ft 471 kts 65°
2026-04-26 18:56 39.69313 20.80088 34101 ft 471 kts 65°
2026-04-26 18:57 39.71649 20.86541 34108 ft 471 kts 63°
2026-04-26 18:57 39.74897 20.95501 34105 ft 472 kts 63°
2026-04-26 18:58 39.77683 21.03227 34098 ft 472 kts 63°
2026-04-26 18:58 39.80462 21.10954 34100 ft 472 kts 64°
2026-04-26 18:59 39.83236 21.18685 34099 ft 472 kts 63°
2026-04-26 18:59 39.86007 21.26429 34100 ft 472 kts 64°
2026-04-26 19:00 39.88771 21.34175 34084 ft 472 kts 64°
2026-04-26 19:00 39.91532 21.41935 34073 ft 472 kts 63°
2026-04-26 19:01 39.94286 21.49692 34058 ft 472 kts 63°
2026-04-26 19:01 39.97050 21.57453 34066 ft 472 kts 63°
2026-04-26 19:02 39.99824 21.65224 34063 ft 472 kts 63°
2026-04-26 19:02 40.02125 21.71685 34065 ft 473 kts 63°
2026-04-26 19:03 40.05336 21.80728 34068 ft 473 kts 63°
2026-04-26 19:03 40.08097 21.88527 34066 ft 473 kts 63°
2026-04-26 19:04 40.10852 21.96329 34073 ft 473 kts 63°
2026-04-26 19:04 40.13546 22.04166 34069 ft 473 kts 64°
2026-04-26 19:05 40.17564 22.15958 34058 ft 473 kts 64°
2026-04-26 19:06 40.20233 22.23815 34052 ft 473 kts 64°
2026-04-26 19:06 40.22900 22.31686 34036 ft 473 kts 64°
2026-04-26 19:07 40.25555 22.39547 34027 ft 472 kts 64°
2026-04-26 19:07 40.28207 22.47416 34016 ft 472 kts 64°
2026-04-26 19:08 40.30884 22.55256 34007 ft 471 kts 63°
2026-04-26 19:08 40.33551 22.63098 34002 ft 471 kts 64°
2026-04-26 19:09 40.36207 22.70940 34009 ft 470 kts 64°
2026-04-26 19:09 40.38853 22.78779 34011 ft 470 kts 64°
2026-04-26 19:10 40.41475 22.86566 34018 ft 469 kts 64°
2026-04-26 19:10 40.44121 22.94447 34026 ft 468 kts 64°
2026-04-26 19:11 40.46148 23.02488 34032 ft 471 kts 78°
2026-04-26 19:11 40.47415 23.10930 34022 ft 471 kts 77°
2026-04-26 19:12 40.48660 23.19389 34008 ft 471 kts 77°
2026-04-26 19:12 40.49892 23.27850 34012 ft 472 kts 77°
2026-04-26 19:13 40.51116 23.36310 34011 ft 471 kts 77°
2026-04-26 19:13 40.52335 23.44773 34008 ft 471 kts 77°
2026-04-26 19:14 40.53546 23.53238 34010 ft 471 kts 77°
2026-04-26 19:14 40.54749 23.61702 34010 ft 471 kts 77°
2026-04-26 19:15 40.55746 23.68747 34009 ft 471 kts 77°
2026-04-26 19:15 40.56939 23.77220 34008 ft 471 kts 77°
2026-04-26 19:16 40.58318 23.87074 34017 ft 471 kts 77°
2026-04-26 19:16 40.59306 23.94173 34012 ft 471 kts 77°
2026-04-26 19:17 40.61021 24.02462 34008 ft 468 kts 70°
2026-04-26 19:17 40.62923 24.10601 34015 ft 468 kts 70°
2026-04-26 19:18 40.64841 24.18790 34017 ft 468 kts 70°
2026-04-26 19:18 40.66755 24.26985 34016 ft 468 kts 70°
2026-04-26 19:19 40.68664 24.35190 34013 ft 468 kts 70°
2026-04-26 19:19 40.70563 24.43380 34008 ft 468 kts 70°
2026-04-26 19:20 40.72458 24.51584 34008 ft 467 kts 70°
2026-04-26 19:20 40.74347 24.59792 34003 ft 467 kts 70°
2026-04-26 19:21 40.76228 24.67986 34002 ft 467 kts 70°
2026-04-26 19:21 40.78103 24.76189 34000 ft 467 kts 70°
2026-04-26 19:22 40.79974 24.84396 34003 ft 467 kts 70°
2026-04-26 19:22 40.81837 24.92603 34009 ft 467 kts 70°
2026-04-26 19:23 40.83695 25.00811 34013 ft 467 kts 70°
2026-04-26 19:23 40.85546 25.09024 34015 ft 467 kts 70°
2026-04-26 19:24 40.87391 25.17240 34017 ft 466 kts 70°
2026-04-26 19:24 40.90148 25.29567 34016 ft 466 kts 70°
2026-04-26 19:25 40.91659 25.36346 33495 ft 459 kts 70°
2026-04-26 19:25 40.92855 25.41725 32386 ft 462 kts 71°
2026-04-26 19:25 40.93758 25.45793 31718 ft 460 kts 71°
2026-04-26 19:26 40.94659 25.49857 31044 ft 459 kts 71°
2026-04-26 19:26 40.95553 25.53900 30365 ft 459 kts 71°
2026-04-26 19:26 40.96448 25.57955 29612 ft 458 kts 71°
2026-04-26 19:26 40.97337 25.61992 28755 ft 458 kts 71°
2026-04-26 19:27 40.98229 25.66048 27865 ft 459 kts 71°
2026-04-26 19:27 40.99122 25.70116 26960 ft 461 kts 71°
2026-04-26 19:27 41.00016 25.74199 26055 ft 463 kts 71°
2026-04-26 19:27 41.00912 25.78296 25150 ft 465 kts 71°
2026-04-26 19:28 41.01810 25.82412 24347 ft 465 kts 71°
2026-04-26 19:28 41.02702 25.86504 23770 ft 458 kts 71°
2026-04-26 19:28 41.03582 25.90554 22974 ft 456 kts 71°
2026-04-26 19:28 41.04450 25.94556 22259 ft 451 kts 71°
2026-04-26 19:29 41.05315 25.98551 21509 ft 448 kts 71°
2026-04-26 19:29 41.06168 26.02497 20808 ft 444 kts 72°
2026-04-26 19:29 41.07015 26.06417 20110 ft 441 kts 72°
2026-04-26 19:29 41.07842 26.10257 19459 ft 437 kts 72°
2026-04-26 19:30 41.08670 26.14109 19083 ft 428 kts 72°
2026-04-26 19:30 41.09499 26.17967 18998 ft 433 kts 72°
2026-04-26 19:30 41.10316 26.21779 18989 ft 436 kts 72°
2026-04-26 19:30 41.10877 26.24398 18993 ft 437 kts 72°
2026-04-26 19:31 41.11789 26.29586 18997 ft 439 kts 84°
2026-04-26 19:31 41.11611 26.33678 19007 ft 442 kts 101°
2026-04-26 19:31 41.10692 26.37522 19005 ft 444 kts 109°
2026-04-26 19:31 41.09581 26.41338 19006 ft 445 kts 110°
2026-04-26 19:32 41.08432 26.45145 19004 ft 445 kts 111°
2026-04-26 19:32 41.07269 26.48921 18996 ft 440 kts 111°
2026-04-26 19:32 41.06104 26.52651 19000 ft 436 kts 111°
2026-04-26 19:32 41.04939 26.56362 19003 ft 436 kts 111°
2026-04-26 19:33 41.03777 26.60071 18998 ft 436 kts 111°
2026-04-26 19:33 41.02681 26.63810 19002 ft 436 kts 110°
2026-04-26 19:33 41.01581 26.67559 19003 ft 436 kts 110°
2026-04-26 19:33 41.00482 26.71288 18999 ft 436 kts 110°
2026-04-26 19:34 40.99372 26.75043 18999 ft 437 kts 110°
2026-04-26 19:34 40.98265 26.78780 18952 ft 433 kts 110°
2026-04-26 19:34 40.97172 26.82468 18324 ft 431 kts 110°
2026-04-26 19:34 40.96078 26.86155 17619 ft 430 kts 110°
2026-04-26 19:35 40.94993 26.89805 17063 ft 423 kts 110°
2026-04-26 19:35 40.93918 26.93416 16425 ft 420 kts 110°
2026-04-26 19:35 40.92832 26.96921 15841 ft 416 kts 116°
2026-04-26 19:35 40.91233 27.00147 15275 ft 412 kts 125°
2026-04-26 19:36 40.89564 27.03213 14650 ft 410 kts 125°
2026-04-26 19:36 40.88458 27.05222 14317 ft 406 kts 125°
2026-04-26 19:36 40.86258 27.09182 13533 ft 402 kts 126°
2026-04-26 19:36 40.84608 27.12138 13046 ft 395 kts 125°
2026-04-26 19:37 40.82978 27.15051 12772 ft 384 kts 125°
2026-04-26 19:37 40.81437 27.17800 12569 ft 371 kts 125°
2026-04-26 19:37 40.79931 27.20486 12429 ft 357 kts 125°
2026-04-26 19:37 40.78458 27.23108 11887 ft 356 kts 125°
2026-04-26 19:38 40.76985 27.25728 11447 ft 353 kts 125°
2026-04-26 19:38 40.75530 27.28316 10966 ft 351 kts 125°
2026-04-26 19:38 40.74183 27.30971 10539 ft 345 kts 113°
2026-04-26 19:38 40.73596 27.33942 10361 ft 328 kts 95°
2026-04-26 19:39 40.73307 27.36860 10279 ft 314 kts 96°
2026-04-26 19:39 40.73019 27.39652 10209 ft 300 kts 95°
2026-04-26 19:39 40.72746 27.42316 10040 ft 290 kts 95°
2026-04-26 19:39 40.72477 27.44965 9547 ft 292 kts 95°
2026-04-26 19:40 40.72208 27.47608 9204 ft 289 kts 95°
2026-04-26 19:40 40.71941 27.50234 8783 ft 289 kts 95°
2026-04-26 19:40 40.71674 27.52846 8408 ft 287 kts 94°
2026-04-26 19:40 40.71413 27.55443 8038 ft 284 kts 92°
2026-04-26 19:41 40.71368 27.58030 7646 ft 282 kts 86°
2026-04-26 19:41 40.71366 27.60597 7300 ft 279 kts 86°
2026-04-26 19:41 40.71352 27.63152 6945 ft 278 kts 86°
2026-04-26 19:41 40.71346 27.63986 6830 ft 277 kts 86°
2026-04-26 19:42 40.71313 27.67373 6356 ft 275 kts 86°
2026-04-26 19:42 40.71282 27.69900 5993 ft 275 kts 87°
2026-04-26 19:42 40.71250 27.72473 5978 ft 290 kts 87°
2026-04-26 19:42 40.71214 27.75212 5973 ft 307 kts 87°
2026-04-26 19:43 40.71177 27.78105 5964 ft 324 kts 86°
2026-04-26 19:43 40.71490 27.81088 5953 ft 333 kts 74°
2026-04-26 19:43 40.71981 27.84104 5955 ft 339 kts 75°
2026-04-26 19:43 40.72463 27.87159 5969 ft 341 kts 75°
2026-04-26 19:44 40.72939 27.90231 5976 ft 342 kts 75°
2026-04-26 19:44 40.73411 27.93297 5977 ft 342 kts 75°
2026-04-26 19:44 40.73881 27.96372 5981 ft 341 kts 76°
2026-04-26 19:44 40.74350 27.99437 5981 ft 341 kts 76°
2026-04-26 19:45 40.74811 28.02465 5944 ft 338 kts 76°
2026-04-26 19:45 40.75271 28.05498 5465 ft 338 kts 76°
2026-04-26 19:45 40.75732 28.08540 4931 ft 337 kts 76°
2026-04-26 19:45 40.76190 28.11564 4356 ft 336 kts 76°
2026-04-26 19:46 40.76646 28.14583 3746 ft 335 kts 77°
2026-04-26 19:46 40.77100 28.17595 3164 ft 335 kts 77°
2026-04-26 19:46 40.77548 28.20565 3045 ft 325 kts 77°
2026-04-26 19:46 40.77976 28.23408 3037 ft 308 kts 77°
2026-04-26 19:47 40.78466 28.26067 3040 ft 289 kts 71°
2026-04-26 19:47 40.78865 28.27740 3044 ft 277 kts 71°
2026-04-26 19:47 40.79596 28.30870 3040 ft 268 kts 71°
2026-04-26 19:47 40.80126 28.33182 3012 ft 268 kts 71°
2026-04-26 19:48 40.80661 28.35537 3011 ft 268 kts 71°
2026-04-26 19:48 40.81195 28.37899 3008 ft 268 kts 71°
2026-04-26 19:48 40.81726 28.40260 3006 ft 269 kts 71°
2026-04-26 19:48 40.82257 28.42624 3011 ft 269 kts 72°
2026-04-26 19:49 40.82783 28.44974 3006 ft 262 kts 71°
2026-04-26 19:49 40.83287 28.47226 2969 ft 249 kts 71°
2026-04-26 19:49 40.83770 28.49374 2916 ft 242 kts 71°
2026-04-26 19:49 40.84251 28.51512 2860 ft 243 kts 71°
2026-04-26 19:50 40.84730 28.53651 2831 ft 243 kts 71°
2026-04-26 19:50 40.85211 28.55789 2827 ft 243 kts 71°
2026-04-26 19:50 40.85686 28.57933 2827 ft 243 kts 72°
2026-04-26 19:50 40.86256 28.60026 2818 ft 241 kts 59°
2026-04-26 19:51 40.87210 28.61758 2773 ft 230 kts 47°
2026-04-26 19:51 40.88210 28.63359 2673 ft 220 kts 48°
2026-04-26 19:51 40.89099 28.64994 2604 ft 220 kts 54°
2026-04-26 19:51 40.89941 28.66719 2631 ft 226 kts 56°
2026-04-26 19:52 40.90767 28.68500 2630 ft 227 kts 56°
2026-04-26 19:52 40.91594 28.70283 2635 ft 228 kts 56°
2026-04-26 19:52 40.92423 28.72065 2634 ft 228 kts 56°
2026-04-26 19:52 40.93260 28.73869 2259 ft 231 kts 56°
2026-04-26 19:53 40.94108 28.75698 1465 ft 241 kts 57°
2026-04-26 19:53 40.95001 28.77627 774 ft 245 kts 58°
2026-04-26 19:53 40.95863 28.79490 412 ft 232 kts 58°
2026-04-26 19:53 40.96675 28.81240 140 ft 216 kts 58°
2026-04-26 19:54 40.97386 28.82775 107 ft 162 kts 58°
2026-04-26 19:54 40.97983 28.83877 196 ft 154 kts 53°
2026-04-26 19:54 40.98720 28.85132 706 ft 185 kts 51°
2026-04-26 19:54 40.99555 28.86548 1438 ft 205 kts 50°
2026-04-26 19:55 41.00480 28.88091 2296 ft 213 kts 48°
2026-04-26 19:55 41.01369 28.89716 3108 ft 235 kts 60°
2026-04-26 19:55 41.02023 28.91991 3119 ft 292 kts 71°
2026-04-26 19:55 41.02577 28.94505 3097 ft 282 kts 72°
2026-04-26 19:56 41.03022 28.96963 3320 ft 282 kts 85°
2026-04-26 19:56 41.02825 28.99238 4562 ft 274 kts 100°
2026-04-26 19:56 41.02393 29.01724 5646 ft 282 kts 101°
2026-04-26 19:56 41.01920 29.04300 6543 ft 292 kts 101°
2026-04-26 19:57 41.01437 29.06915 7597 ft 295 kts 101°
2026-04-26 19:57 41.00958 29.09584 7946 ft 298 kts 101°
2026-04-26 19:57 41.00483 29.12256 8011 ft 297 kts 101°
2026-04-26 19:57 41.00011 29.14921 8019 ft 297 kts 101°
2026-04-26 19:58 40.99538 29.17585 8032 ft 299 kts 101°
2026-04-26 19:58 40.99074 29.20224 9071 ft 292 kts 101°
2026-04-26 19:58 40.98624 29.22865 10005 ft 300 kts 101°
2026-04-26 19:58 40.98160 29.25638 10587 ft 316 kts 101°
2026-04-26 19:59 40.97673 29.28556 11068 ft 335 kts 101°
2026-04-26 19:59 40.97162 29.31640 11641 ft 349 kts 101°
2026-04-26 19:59 40.96635 29.34817 12323 ft 356 kts 101°
2026-04-26 19:59 40.96102 29.38035 13182 ft 361 kts 101°
2026-04-26 20:00 40.95560 29.41309 13895 ft 368 kts 101°
2026-04-26 20:00 40.95012 29.44628 14586 ft 372 kts 101°
2026-04-26 20:00 40.94458 29.48004 14946 ft 376 kts 101°
2026-04-26 20:00 40.93906 29.51386 14998 ft 376 kts 101°
2026-04-26 20:01 40.93354 29.54761 14994 ft 376 kts 101°
2026-04-26 20:01 40.92801 29.58141 15003 ft 376 kts 101°
2026-04-26 20:01 40.92250 29.61516 15003 ft 376 kts 101°
2026-04-26 20:01 40.91704 29.64853 15000 ft 376 kts 101°
2026-04-26 20:02 40.91152 29.68229 15003 ft 376 kts 101°
2026-04-26 20:02 40.90601 29.71604 15003 ft 376 kts 101°
2026-04-26 20:02 40.90049 29.74984 14991 ft 376 kts 101°
2026-04-26 20:02 40.89864 29.76121 14997 ft 376 kts 101°
2026-04-26 20:03 40.88948 29.81735 15007 ft 376 kts 101°
2026-04-26 20:03 40.88399 29.85102 15000 ft 375 kts 101°
2026-04-26 20:03 40.87849 29.88477 15005 ft 375 kts 101°
2026-04-26 20:03 40.87299 29.91851 15006 ft 375 kts 101°
2026-04-26 20:04 40.86750 29.95222 15019 ft 375 kts 101°
2026-04-26 20:04 40.86386 29.97456 15011 ft 375 kts 101°
2026-04-26 20:04 40.85838 30.00823 15012 ft 375 kts 101°
2026-04-26 20:04 40.85288 30.04193 15012 ft 375 kts 101°
2026-04-26 20:05 40.84740 30.07562 15023 ft 375 kts 101°
2026-04-26 20:05 40.84191 30.10929 15016 ft 375 kts 101°
2026-04-26 20:05 40.83644 30.14296 15021 ft 375 kts 101°
2026-04-26 20:05 40.83130 30.17669 15008 ft 374 kts 95°
2026-04-26 20:06 40.83251 30.21056 14971 ft 367 kts 75°
2026-04-26 20:06 40.84177 30.24147 14487 ft 362 kts 55°
2026-04-26 20:06 40.85843 30.26575 14079 ft 353 kts 34°
2026-04-26 20:06 40.88002 30.27957 14017 ft 344 kts 12°
2026-04-26 20:07 40.90376 30.28188 14001 ft 344 kts 351°
2026-04-26 20:07 40.92649 30.27254 13999 ft 343 kts 330°
2026-04-26 20:07 40.94493 30.25293 13999 ft 342 kts 309°
2026-04-26 20:07 40.95668 30.22571 14004 ft 344 kts 290°
2026-04-26 20:08 40.96349 30.19532 14000 ft 345 kts 286°
2026-04-26 20:08 40.96971 30.16468 14012 ft 345 kts 286°
2026-04-26 20:08 40.97591 30.13404 13998 ft 345 kts 286°
2026-04-26 20:08 40.98208 30.10345 13997 ft 345 kts 286°
2026-04-26 20:09 40.98827 30.07278 14008 ft 344 kts 286°
2026-04-26 20:09 40.99448 30.04216 13994 ft 344 kts 286°
2026-04-26 20:09 41.00065 30.01174 13967 ft 341 kts 286°
2026-04-26 20:09 41.00613 29.98120 13457 ft 341 kts 277°
2026-04-26 20:10 41.00591 29.95002 12654 ft 338 kts 269°
2026-04-26 20:10 41.00528 29.91890 11747 ft 337 kts 270°
2026-04-26 20:10 41.00493 29.88812 10976 ft 333 kts 271°
2026-04-26 20:10 41.00469 29.85769 10324 ft 326 kts 271°
2026-04-26 20:11 41.00453 29.82828 9904 ft 313 kts 271°
2026-04-26 20:11 41.00442 29.80052 9537 ft 298 kts 271°
2026-04-26 20:11 41.00432 29.77375 9233 ft 283 kts 271°
2026-04-26 20:12 41.00415 29.72240 8043 ft 278 kts 272°
2026-04-26 20:12 41.00406 29.69708 7541 ft 273 kts 272°
2026-04-26 20:12 41.00397 29.67198 6956 ft 272 kts 273°
2026-04-26 20:12 41.00385 29.64711 6401 ft 269 kts 273°
2026-04-26 20:13 41.00375 29.62248 5874 ft 265 kts 273°
2026-04-26 20:13 41.00317 29.59806 5265 ft 266 kts 263°
2026-04-26 20:13 40.99631 29.57533 4747 ft 266 kts 245°
2026-04-26 20:13 40.98809 29.55342 4153 ft 265 kts 246°
2026-04-26 20:14 40.98009 29.53163 3624 ft 261 kts 246°
2026-04-26 20:14 40.97238 29.51041 3536 ft 254 kts 246°
2026-04-26 20:14 40.96464 29.48909 3511 ft 260 kts 246°
2026-04-26 20:14 40.95674 29.46764 3516 ft 254 kts 246°
2026-04-26 20:15 40.94928 29.44732 3410 ft 234 kts 246°
2026-04-26 20:15 40.94249 29.42883 3048 ft 217 kts 246°
2026-04-26 20:15 40.93600 29.41107 2538 ft 210 kts 246°
2026-04-26 20:15 40.92983 29.39423 2147 ft 197 kts 246°
2026-04-26 20:16 40.92386 29.37780 1470 ft 200 kts 246°
2026-04-26 20:16 40.91800 29.36098 935 ft 204 kts 246°
2026-04-26 20:16 40.91103 29.34308 753 ft 240 kts 239°
2026-04-26 20:16 40.90300 29.32222 623 ft 274 kts 246°
2026-04-26 20:17 40.89526 29.29968 1432 ft 267 kts 247°
2026-04-26 20:17 40.89187 29.27652 2134 ft 250 kts 277°
2026-04-26 20:17 40.89673 29.25495 3232 ft 249 kts 298°
2026-04-26 20:17 40.90337 29.24232 3528 ft 256 kts 314°
2026-04-26 20:18 40.92373 29.22746 3532 ft 257 kts 346°
2026-04-26 20:18 40.94145 29.22372 3521 ft 259 kts 351°
2026-04-26 20:18 40.95934 29.22062 3511 ft 259 kts 351°
2026-04-26 20:18 40.97724 29.21892 3500 ft 259 kts
2026-04-26 20:19 40.99357 29.22692 3513 ft 247 kts 33°
2026-04-26 20:19 41.00432 29.24373 3521 ft 236 kts 61°
2026-04-26 20:19 41.01077 29.26383 3519 ft 239 kts 66°
2026-04-26 20:19 41.01685 29.28435 3522 ft 240 kts 66°
2026-04-26 20:20 41.02290 29.30492 3518 ft 240 kts 66°
2026-04-26 20:20 41.02899 29.32552 3513 ft 240 kts 66°
2026-04-26 20:20 41.03509 29.34610 3518 ft 240 kts 66°
2026-04-26 20:20 41.04121 29.36671 3517 ft 240 kts 66°
2026-04-26 20:21 41.04723 29.38701 3512 ft 231 kts 66°
2026-04-26 20:21 41.05303 29.40656 3522 ft 227 kts 66°
2026-04-26 20:21 41.05880 29.42604 3513 ft 227 kts 66°
2026-04-26 20:21 41.06458 29.44550 3510 ft 227 kts 66°
2026-04-26 20:22 41.07035 29.46494 3509 ft 227 kts 66°
2026-04-26 20:22 41.07451 29.48500 3472 ft 228 kts 91°
2026-04-26 20:22 41.06924 29.50434 3475 ft 227 kts 129°
2026-04-26 20:22 41.05791 29.51918 3530 ft 231 kts 136°
2026-04-26 20:23 41.04674 29.53451 3511 ft 231 kts 133°
2026-04-26 20:23 41.03578 29.55004 3507 ft 231 kts 133°
2026-04-26 20:23 41.02368 29.56389 3477 ft 229 kts 156°
2026-04-26 20:23 41.00848 29.56713 3470 ft 222 kts 193°
2026-04-26 20:24 40.99476 29.55885 3517 ft 218 kts 224°
2026-04-26 20:24 40.98577 29.54312 3522 ft 215 kts 245°
2026-04-26 20:24 40.97881 29.52546 3520 ft 217 kts 245°
2026-04-26 20:24 40.97189 29.50783 3552 ft 212 kts 245°
2026-04-26 20:25 40.96541 29.49113 3470 ft 198 kts 246°
2026-04-26 20:25 40.96141 29.48034 3267 ft 196 kts 247°
2026-04-26 20:25 40.95360 29.45907 2879 ft 188 kts 247°
2026-04-26 20:25 40.94814 29.44417 2606 ft 174 kts 247°
2026-04-26 20:26 40.94313 29.43054 2386 ft 155 kts 247°
2026-04-26 20:26 40.93855 29.41806 2135 ft 150 kts 247°
2026-04-26 20:26 40.93402 29.40569 1898 ft 149 kts 246°
2026-04-26 20:26 40.92950 29.39338 1652 ft 148 kts 246°
2026-04-26 20:27 40.92499 29.38110 1419 ft 149 kts 246°
2026-04-26 20:27 40.92046 29.36876 1175 ft 150 kts 245°
2026-04-26 20:27 40.91586 29.35626 948 ft 152 kts 244°
2026-04-26 20:27 40.91125 29.34369 718 ft 152 kts 244°
2026-04-26 20:28 40.90663 29.33112 487 ft 152 kts 244°
2026-04-26 20:28 40.90201 29.31878 323 ft 142 kts 249°
2026-04-26 20:28 40.89855 29.30916 322 ft 82 kts 244°
2026-04-26 20:28 40.89688 29.30454 324 ft 30 kts 244°
2026-04-26 20:29 40.89628 29.30167 324 ft 34 kts 269°
2026-04-26 20:29 40.89652 29.29930 322 ft 10 kts 308°
2026-04-26 20:29 40.89702 29.29926 323 ft 7 kts 45°
2026-04-26 20:29 40.89723 29.29979 321 ft 8 kts 66°
2026-04-26 20:30 40.89758 29.30083 321 ft 18 kts 65°
2026-04-26 20:30 40.89824 29.30275 322 ft 28 kts 65°
2026-04-26 20:30 40.89926 29.30552 323 ft 38 kts 62°
2026-04-26 20:30 40.90048 29.30871 321 ft 40 kts 64°
2026-04-26 20:31 40.90159 29.31172 323 ft 40 kts 64°
2026-04-26 20:31 40.90249 29.31417 323 ft 23 kts 64°
2026-04-26 20:31 40.90338 29.31492 321 ft 16 kts 334°
2026-04-26 20:31 40.90441 29.31422 322 ft 16 kts 346°
2026-04-26 20:32 40.90525 29.31377 323 ft 0 kts 333°
2026-04-26 20:32 40.90526 29.31377 323 ft 0 kts 333°